,,Stat5,,Stat1,,Stat2,,Stat3,,Stat4,,Wind1,,Wind1,
time,status,PA1M_AVG,status,PR1M_SUM,status,RH1M_AVG,status,SR1M_AVG,status,TA1M_AVG,status,W1dAve1m,status,W1sAve1m,
2003-02-14, 00:00:01,VALID,918.023,VALID,0,VALID,99.3797,VALID,-0.0509425,VALID,19.9227,VALID,87,VALID,0.120683,
2003-02-14, 00:01:01,VALID,918.008,VALID,0,VALID,99.3823,VALID,-0.0169808,VALID,19.9188,VALID,59,VALID,0.0960726,
2003-02-14, 00:02:01,VALID,918.007,VALID,0,VALID,99.3937,VALID,-0.0339617,VALID,19.9454,VALID,77,VALID,0.223273,
2003-02-14, 00:03:00,VALID,918.015,VALID,0,VALID,99.3644,VALID,0,VALID,19.9165,VALID,136,VALID,0.429688,
2003-02-14, 00:04:00,VALID,918.007,VALID,0,VALID,99.3441,VALID,0,VALID,19.8802,VALID,141,VALID,0.535156,
2003-02-14, 00:05:01,VALID,917.997,VALID,0.2,VALID,99.3517,VALID,-0.0679233,VALID,19.8578,VALID,153,VALID,0.691106,
2003-02-14, 00:06:00,VALID,917.987,VALID,0,VALID,99.3568,VALID,-0.0339617,VALID,19.8713,VALID,149,VALID,0.507179,
2003-02-14, 00:07:00,VALID,917.99,VALID,0,VALID,99.3759,VALID,0,VALID,19.8586,VALID,148,VALID,0.172276,
2003-02-14, 00:08:01,VALID,917.976,VALID,0,VALID,99.3797,VALID,-0.0509425,VALID,19.8447,VALID,127,VALID,0.226763,
2003-02-14, 00:09:00,VALID,917.979,VALID,0,VALID,99.3861,VALID,-0.0339617,VALID,19.8509,VALID,128,VALID,0.147035,
2003-02-14, 00:10:00,VALID,917.997,VALID,0,VALID,99.4001,VALID,-0.0509425,VALID,19.871,VALID,87,VALID,0.27567,
2003-02-14, 00:11:00,VALID,918.011,VALID,0,VALID,99.4191,VALID,-0.0169808,VALID,19.8765,VALID,39,VALID,0.633789,
2003-02-14, 00:12:00,VALID,918.021,VALID,0,VALID,99.4306,VALID,-0.0509425,VALID,19.8934,VALID,48,VALID,0.663035,
2003-02-14, 00:13:00,VALID,918.039,VALID,0,VALID,99.428,VALID,-0.0339617,VALID,19.8966,VALID,49,VALID,0.544488,
2003-02-14, 00:14:01,VALID,918.036,VALID,0,VALID,99.4433,VALID,-0.0509425,VALID,19.8929,VALID,50,VALID,0.333615,
2003-02-14, 00:15:01,VALID,918.01,VALID,0,VALID,99.4395,VALID,-0.0339617,VALID,19.9066,VALID,50,VALID,0.478711,
2003-02-14, 00:16:00,VALID,917.981,VALID,0,VALID,99.4357,VALID,0,VALID,19.8966,VALID,60,VALID,0.302148,
2003-02-14, 00:17:01,VALID,917.955,VALID,0,VALID,99.4255,VALID,-0.0169808,VALID,19.8708,VALID,99,VALID,0.330329,
2003-02-14, 00:18:01,VALID,917.941,VALID,0,VALID,99.4331,VALID,-0.0509425,VALID,19.8608,VALID,99,VALID,0.149023,
2003-02-14, 00:19:00,VALID,917.928,VALID,0.2,VALID,99.4331,VALID,-0.0169808,VALID,19.8643,VALID,99,VALID,0.141016,
2003-02-14, 00:20:00,VALID,917.933,VALID,0,VALID,99.4408,VALID,0,VALID,19.8673,VALID,99,VALID,0.22065,
2003-02-14, 00:21:00,VALID,917.933,VALID,0,VALID,99.442,VALID,0,VALID,19.8608,VALID,99,VALID,0.209882,
2003-02-14, 00:22:00,VALID,917.956,VALID,0,VALID,99.4408,VALID,-0.0339617,VALID,19.8576,VALID,78,VALID,0.239844,
2003-02-14, 00:23:00,VALID,917.972,VALID,0,VALID,99.4675,VALID,-0.0169808,VALID,19.8902,VALID,52,VALID,0.452009,
2003-02-14, 00:24:00,VALID,917.991,VALID,0,VALID,99.4789,VALID,-0.0169808,VALID,19.9193,VALID,45,VALID,0.307031,
2003-02-14, 00:25:00,VALID,917.986,VALID,0.2,VALID,99.4764,VALID,-0.0339617,VALID,19.9257,VALID,45,VALID,0.247997,
2003-02-14, 00:26:01,VALID,917.992,VALID,0,VALID,99.4802,VALID,-0.0509425,VALID,19.9285,VALID,45,VALID,0.261308,
2003-02-14, 00:27:01,VALID,917.983,VALID,0,VALID,99.4853,VALID,-0.0169808,VALID,19.9387,VALID,45,VALID,0.30222,
2003-02-14, 00:28:01,VALID,917.978,VALID,0.2,VALID,99.4954,VALID,-0.0339617,VALID,19.9451,VALID,45,VALID,0.0308388,
2003-02-14, 00:29:00,VALID,917.95,VALID,0,VALID,99.4865,VALID,-0.0509425,VALID,19.9449,VALID,45,VALID,0,
2003-02-14, 00:30:00,VALID,917.92,VALID,0,VALID,99.4814,VALID,-0.0509425,VALID,19.9359,VALID,45,VALID,0,
2003-02-14, 00:31:00,VALID,917.893,VALID,0,VALID,99.4764,VALID,-0.0169808,VALID,19.9257,VALID,54,VALID,0.0590946,
2003-02-14, 00:32:00,VALID,917.877,VALID,0,VALID,99.4725,VALID,-0.0169808,VALID,19.9163,VALID,82,VALID,0.274639,
2003-02-14, 00:33:00,VALID,917.857,VALID,0.2,VALID,99.4687,VALID,-0.0339617,VALID,19.8999,VALID,106,VALID,0.389992,
2003-02-14, 00:34:01,VALID,917.862,VALID,0,VALID,99.4725,VALID,-0.0339617,VALID,19.8969,VALID,113,VALID,0.201858,
2003-02-14, 00:35:01,VALID,917.875,VALID,0,VALID,99.4662,VALID,-0.0339617,VALID,19.8842,VALID,114,VALID,0.470313,
2003-02-14, 00:36:01,VALID,917.873,VALID,0,VALID,99.4687,VALID,-0.0339617,VALID,19.8516,VALID,118,VALID,0.529182,
2003-02-14, 00:37:00,VALID,917.864,VALID,0,VALID,99.4687,VALID,-0.0339617,VALID,19.8521,VALID,123,VALID,0.396998,
2003-02-14, 00:38:00,VALID,917.865,VALID,0,VALID,99.4802,VALID,0,VALID,19.8449,VALID,119,VALID,0.570112,
2003-02-14, 00:39:00,VALID,917.851,VALID,0,VALID,99.4764,VALID,-0.0509425,VALID,19.8352,VALID,137,VALID,0.50514,
2003-02-14, 00:40:00,VALID,917.863,VALID,0,VALID,99.4827,VALID,-0.0679233,VALID,19.8322,VALID,140,VALID,0.682566,
2003-02-14, 00:41:01,VALID,917.868,VALID,0.2,VALID,99.484,VALID,-0.0679233,VALID,19.8263,VALID,143,VALID,0.573552,
2003-02-14, 00:42:00,VALID,917.884,VALID,0,VALID,99.4789,VALID,-0.0509425,VALID,19.8225,VALID,143,VALID,0.311899,
2003-02-14, 00:43:01,VALID,917.884,VALID,0,VALID,99.4916,VALID,-0.0679233,VALID,19.8196,VALID,142,VALID,0.387336,
2003-02-14, 00:44:00,VALID,917.887,VALID,0,VALID,99.4916,VALID,-0.0849042,VALID,19.8126,VALID,152,VALID,0.349159,
2003-02-14, 00:45:00,VALID,917.877,VALID,0,VALID,99.5056,VALID,-0.0849042,VALID,19.8163,VALID,126,VALID,0.549679,
2003-02-14, 00:46:00,VALID,917.879,VALID,0,VALID,99.5081,VALID,-0.0509425,VALID,19.8263,VALID,145,VALID,0.374199,
2003-02-14, 00:47:01,VALID,917.871,VALID,0,VALID,99.5183,VALID,-0.0679233,VALID,19.829,VALID,140,VALID,0.523026,
2003-02-14, 00:48:00,VALID,917.874,VALID,0,VALID,99.5132,VALID,-0.0849042,VALID,19.829,VALID,132,VALID,0.329359,
2003-02-14, 00:49:00,VALID,917.871,VALID,0,VALID,99.5234,VALID,-0.0509425,VALID,19.8322,VALID,132,VALID,0.296645,
2003-02-14, 00:50:00,VALID,917.874,VALID,0.2,VALID,99.5221,VALID,-0.0339617,VALID,19.8457,VALID,126,VALID,0.499805,
2003-02-14, 00:51:00,VALID,917.886,VALID,0,VALID,99.5196,VALID,-0.0339617,VALID,19.825,VALID,119,VALID,0.596217,
2003-02-14, 00:52:00,VALID,917.884,VALID,0,VALID,99.5107,VALID,-0.0169808,VALID,19.8258,VALID,113,VALID,0.650608,
2003-02-14, 00:53:01,VALID,917.897,VALID,0,VALID,99.5132,VALID,-0.0169808,VALID,19.7997,VALID,109,VALID,0.622044,
2003-02-14, 00:54:01,VALID,917.886,VALID,0,VALID,99.5107,VALID,-0.0169808,VALID,19.7934,VALID,124,VALID,0.480469,
2003-02-14, 00:55:00,VALID,917.891,VALID,0,VALID,99.5145,VALID,-0.0339617,VALID,19.7865,VALID,116,VALID,0.161133,
2003-02-14, 00:56:00,VALID,917.889,VALID,0,VALID,99.5196,VALID,-0.0339617,VALID,19.7837,VALID,116,VALID,0.0765224,
2003-02-14, 00:57:00,VALID,917.889,VALID,0,VALID,99.5145,VALID,-0.0339617,VALID,19.7905,VALID,116,VALID,0,
2003-02-14, 00:58:00,VALID,917.885,VALID,0,VALID,99.5234,VALID,-0.0169808,VALID,19.78,VALID,116,VALID,0,
2003-02-14, 00:59:00,VALID,917.88,VALID,0,VALID,99.531,VALID,0,VALID,19.7865,VALID,116,VALID,0,
2003-02-14, 01:00:00,VALID,917.88,VALID,0,VALID,99.5298,VALID,0,VALID,19.8029,VALID,116,VALID,0.0126689,
2003-02-14, 01:01:00,VALID,917.886,VALID,0,VALID,99.5272,VALID,0,VALID,19.8094,VALID,116,VALID,0,
2003-02-14, 01:02:00,VALID,917.897,VALID,0,VALID,99.5285,VALID,0,VALID,19.8317,VALID,116,VALID,0,
2003-02-14, 01:03:00,VALID,917.893,VALID,0.2,VALID,99.5501,VALID,0,VALID,19.8544,VALID,116,VALID,0,
2003-02-14, 01:04:00,VALID,917.896,VALID,0,VALID,99.5437,VALID,-0.0169808,VALID,19.8842,VALID,116,VALID,0,
2003-02-14, 01:05:01,VALID,917.881,VALID,0,VALID,99.5387,VALID,0,VALID,19.8937,VALID,115,VALID,0.145148,
2003-02-14, 01:06:01,VALID,917.881,VALID,0,VALID,99.5488,VALID,0,VALID,19.9163,VALID,114,VALID,0.187089,
2003-02-14, 01:07:01,VALID,917.884,VALID,0,VALID,99.5348,VALID,0,VALID,19.916,VALID,113,VALID,0.448117,
2003-02-14, 01:08:00,VALID,917.884,VALID,0,VALID,99.5361,VALID,0,VALID,19.8705,VALID,118,VALID,0.639258,
2003-02-14, 01:09:01,VALID,917.888,VALID,0,VALID,99.5361,VALID,0,VALID,19.8611,VALID,288,VALID,0.375633,
2003-02-14, 01:10:01,VALID,917.886,VALID,0.2,VALID,99.531,VALID,-0.0169808,VALID,19.8382,VALID,288,VALID,0.274639,
2003-02-14, 01:11:00,VALID,917.875,VALID,0,VALID,99.5323,VALID,0,VALID,19.8514,VALID,294,VALID,0.249399,
2003-02-14, 01:12:01,VALID,917.877,VALID,0,VALID,99.5399,VALID,-0.0509425,VALID,19.8643,VALID,297,VALID,0.171453,
2003-02-14, 01:13:01,VALID,917.881,VALID,0,VALID,99.5425,VALID,-0.0169808,VALID,19.8544,VALID,297,VALID,0.0204814,
2003-02-14, 01:14:00,VALID,917.873,VALID,0.2,VALID,99.5425,VALID,0,VALID,19.8444,VALID,297,VALID,0,
2003-02-14, 01:15:01,VALID,917.871,VALID,0,VALID,99.5488,VALID,-0.0339617,VALID,19.8481,VALID,322,VALID,0.183134,
2003-02-14, 01:16:01,VALID,917.867,VALID,0,VALID,99.5514,VALID,0,VALID,19.8772,VALID,10,VALID,0.416735,
2003-02-14, 01:17:01,VALID,917.881,VALID,0.2,VALID,99.5501,VALID,0.0169808,VALID,19.8837,VALID,44,VALID,0.584335,
2003-02-14, 01:18:00,VALID,917.87,VALID,0,VALID,99.5361,VALID,-0.0169808,VALID,19.8673,VALID,52,VALID,0.593133,
2003-02-14, 01:19:01,VALID,917.867,VALID,0,VALID,99.5425,VALID,-0.0169808,VALID,19.8449,VALID,53,VALID,0.576686,
2003-02-14, 01:20:01,VALID,917.866,VALID,0.2,VALID,99.5387,VALID,0,VALID,19.8158,VALID,53,VALID,0.522485,
2003-02-14, 01:21:00,VALID,917.858,VALID,0,VALID,99.5374,VALID,-0.0169808,VALID,19.8029,VALID,44,VALID,0.332732,
2003-02-14, 01:22:01,VALID,917.848,VALID,0,VALID,99.5488,VALID,0.0169808,VALID,19.7994,VALID,32,VALID,0.282072,
2003-02-14, 01:23:01,VALID,917.822,VALID,0.2,VALID,99.5514,VALID,-0.0169808,VALID,19.8026,VALID,30,VALID,0.206931,
2003-02-14, 01:24:01,VALID,917.796,VALID,0,VALID,99.5437,VALID,0.0169808,VALID,19.7865,VALID,30,VALID,0.144832,
2003-02-14, 01:25:01,VALID,917.785,VALID,0.2,VALID,99.5463,VALID,0,VALID,19.7609,VALID,30,VALID,0.226563,
2003-02-14, 01:26:01,VALID,917.782,VALID,0,VALID,99.5463,VALID,0,VALID,19.7514,VALID,30,VALID,0.275905,
2003-02-14, 01:27:01,VALID,917.77,VALID,0.2,VALID,99.5425,VALID,0,VALID,19.745,VALID,30,VALID,0.35074,
2003-02-14, 01:28:01,VALID,917.764,VALID,0,VALID,99.5552,VALID,0,VALID,19.7579,VALID,25,VALID,0.39568,
2003-02-14, 01:29:01,VALID,917.744,VALID,0.2,VALID,99.5501,VALID,0,VALID,19.7385,VALID,13,VALID,0.289453,
2003-02-14, 01:30:01,VALID,917.737,VALID,0.2,VALID,99.5552,VALID,0,VALID,19.7452,VALID,13,VALID,0.0347451,
2003-02-14, 01:31:01,VALID,917.711,VALID,0,VALID,99.5463,VALID,0,VALID,19.7258,VALID,13,VALID,0.047092,
2003-02-14, 01:32:01,VALID,917.707,VALID,0.2,VALID,99.5539,VALID,0,VALID,19.729,VALID,358,VALID,0.115709,
2003-02-14, 01:33:01,VALID,917.712,VALID,0,VALID,99.5628,VALID,0,VALID,19.7223,VALID,199,VALID,0.391797,
2003-02-14, 01:34:01,VALID,917.737,VALID,0.2,VALID,99.559,VALID,0,VALID,19.7124,VALID,159,VALID,0.331836,
2003-02-14, 01:35:01,VALID,917.765,VALID,0,VALID,99.5628,VALID,0,VALID,19.7258,VALID,151,VALID,0.295673,
2003-02-14, 01:36:01,VALID,917.8,VALID,0,VALID,99.559,VALID,0,VALID,19.729,VALID,65,VALID,0.458398,
2003-02-14, 01:37:01,VALID,917.835,VALID,0,VALID,99.573,VALID,0,VALID,19.745,VALID,39,VALID,0.631445,
2003-02-14, 01:38:01,VALID,917.84,VALID,0.2,VALID,99.573,VALID,0,VALID,19.7288,VALID,22,VALID,0.755068,
2003-02-14, 01:39:01,VALID,917.844,VALID,0,VALID,99.5692,VALID,-0.0339617,VALID,19.732,VALID,11,VALID,1.05954,
2003-02-14, 01:40:00,VALID,917.861,VALID,0.2,VALID,99.5755,VALID,0,VALID,19.7221,VALID,5,VALID,1.0918,
2003-02-14, 01:41:00,VALID,917.861,VALID,0,VALID,99.5666,VALID,0,VALID,19.7024,VALID,353,VALID,0.934598,
2003-02-14, 01:42:00,VALID,917.851,VALID,0,VALID,99.5743,VALID,-0.0169808,VALID,19.6895,VALID,332,VALID,0.71543,
2003-02-14, 01:43:00,VALID,917.839,VALID,0.2,VALID,99.5666,VALID,0,VALID,19.6641,VALID,282,VALID,0.564103,
2003-02-14, 01:44:00,VALID,917.796,VALID,0,VALID,99.5679,VALID,0,VALID,19.6905,VALID,219,VALID,0.475535,
2003-02-14, 01:45:00,VALID,917.775,VALID,0,VALID,99.5794,VALID,0,VALID,19.6771,VALID,217,VALID,0.544408,
2003-02-14, 01:46:00,VALID,917.745,VALID,0.2,VALID,99.5844,VALID,0,VALID,19.6994,VALID,217,VALID,0.484575,
2003-02-14, 01:47:00,VALID,917.733,VALID,0,VALID,99.5908,VALID,-0.0169808,VALID,19.7091,VALID,157,VALID,0.270312,
2003-02-14, 01:48:00,VALID,917.747,VALID,0,VALID,99.5883,VALID,0,VALID,19.7154,VALID,159,VALID,0.0686233,
2003-02-14, 01:49:00,VALID,917.755,VALID,0,VALID,99.5972,VALID,0,VALID,19.7223,VALID,159,VALID,0.00200321,
2003-02-14, 01:50:00,VALID,917.776,VALID,0.2,VALID,99.601,VALID,-0.0169808,VALID,19.7256,VALID,159,VALID,0,
2003-02-14, 01:51:00,VALID,917.781,VALID,0,VALID,99.5984,VALID,0,VALID,19.7355,VALID,159,VALID,0,
2003-02-14, 01:52:00,VALID,917.789,VALID,0,VALID,99.5984,VALID,-0.0339617,VALID,19.7417,VALID,159,VALID,0.00126689,
2003-02-14, 01:53:00,VALID,917.795,VALID,0,VALID,99.601,VALID,-0.0339617,VALID,19.7484,VALID,166,VALID,0.312891,
2003-02-14, 01:54:00,VALID,917.772,VALID,0,VALID,99.601,VALID,-0.0169808,VALID,19.7549,VALID,230,VALID,0.603631,
2003-02-14, 01:55:00,VALID,917.765,VALID,0.2,VALID,99.6086,VALID,-0.0169808,VALID,19.7519,VALID,233,VALID,0.589227,
2003-02-14, 01:56:00,VALID,917.729,VALID,0,VALID,99.5946,VALID,-0.0339617,VALID,19.736,VALID,247,VALID,0.552684,
2003-02-14, 01:57:00,VALID,917.727,VALID,0,VALID,99.5921,VALID,-0.0339617,VALID,19.7029,VALID,246,VALID,0.579564,
2003-02-14, 01:58:00,VALID,917.744,VALID,0.2,VALID,99.5972,VALID,-0.0339617,VALID,19.6967,VALID,255,VALID,0.316406,
2003-02-14, 01:59:00,VALID,917.756,VALID,0,VALID,99.6061,VALID,-0.0339617,VALID,19.7029,VALID,246,VALID,0,
2003-02-14, 02:00:00,VALID,917.804,VALID,0,VALID,99.5972,VALID,-0.0679233,VALID,19.7191,VALID,246,VALID,0.00120192,
2003-02-14, 02:01:00,VALID,917.797,VALID,0.2,VALID,99.6022,VALID,-0.0339617,VALID,19.742,VALID,246,VALID,0.0787418,
2003-02-14, 02:02:00,VALID,917.82,VALID,0.2,VALID,99.6035,VALID,-0.0339617,VALID,19.7318,VALID,245,VALID,0.0120192,
2003-02-14, 02:03:00,VALID,917.802,VALID,0.2,VALID,99.6022,VALID,-0.0169808,VALID,19.7415,VALID,245,VALID,0,
2003-02-14, 02:04:00,VALID,917.78,VALID,0,VALID,99.615,VALID,-0.0509425,VALID,19.7514,VALID,245,VALID,0.0454728,
2003-02-14, 02:05:00,VALID,917.763,VALID,0.2,VALID,99.6111,VALID,-0.0339617,VALID,19.7514,VALID,245,VALID,0.0487253,
2003-02-14, 02:06:00,VALID,917.739,VALID,0.2,VALID,99.6099,VALID,-0.0169808,VALID,19.7425,VALID,207,VALID,0.344161,
2003-02-14, 02:07:00,VALID,917.731,VALID,0,VALID,99.6061,VALID,0,VALID,19.7057,VALID,182,VALID,0.448529,
2003-02-14, 02:08:00,VALID,917.73,VALID,0.2,VALID,99.5997,VALID,0,VALID,19.693,VALID,171,VALID,0.327344,
2003-02-14, 02:09:00,VALID,917.739,VALID,0,VALID,99.5972,VALID,-0.0169808,VALID,19.6768,VALID,166,VALID,0.200247,
2003-02-14, 02:10:00,VALID,917.763,VALID,0,VALID,99.5959,VALID,-0.0169808,VALID,19.6776,VALID,166,VALID,0.00998264,
2003-02-14, 02:11:00,VALID,917.782,VALID,0.2,VALID,99.5959,VALID,-0.0339617,VALID,19.6736,VALID,166,VALID,0.0694679,
2003-02-14, 02:12:00,VALID,917.811,VALID,0.2,VALID,99.6061,VALID,0,VALID,19.6806,VALID,166,VALID,0,
2003-02-14, 02:13:00,VALID,917.808,VALID,0,VALID,99.6086,VALID,-0.0339617,VALID,19.6808,VALID,166,VALID,0,
2003-02-14, 02:14:00,VALID,917.793,VALID,0.2,VALID,99.6022,VALID,0,VALID,19.6741,VALID,166,VALID,0.0530849,
2003-02-14, 02:15:00,VALID,917.772,VALID,0.2,VALID,99.6048,VALID,-0.0509425,VALID,19.6674,VALID,166,VALID,0.267578,
2003-02-14, 02:16:00,VALID,917.768,VALID,0.2,VALID,99.615,VALID,-0.0339617,VALID,19.6544,VALID,183,VALID,0.317773,
2003-02-14, 02:17:00,VALID,917.747,VALID,0.4,VALID,99.6188,VALID,-0.0679233,VALID,19.6619,VALID,190,VALID,0.120988,
2003-02-14, 02:18:00,VALID,917.724,VALID,0.2,VALID,99.6162,VALID,-0.0169808,VALID,19.6512,VALID,189,VALID,0.166385,
2003-02-14, 02:19:00,VALID,917.692,VALID,0.2,VALID,99.62,VALID,-0.0169808,VALID,19.648,VALID,164,VALID,0.645898,
2003-02-14, 02:20:00,VALID,917.675,VALID,0.2,VALID,99.615,VALID,-0.0169808,VALID,19.638,VALID,125,VALID,0.746875,
2003-02-14, 02:21:00,VALID,917.671,VALID,0.2,VALID,99.615,VALID,-0.0169808,VALID,19.6355,VALID,107,VALID,1.21074,
2003-02-14, 02:22:00,VALID,917.675,VALID,0.2,VALID,99.6162,VALID,-0.0169808,VALID,19.6065,VALID,101,VALID,1.13001,
2003-02-14, 02:23:00,VALID,917.682,VALID,0.2,VALID,99.6086,VALID,-0.0339617,VALID,19.5903,VALID,96,VALID,0.9081,
2003-02-14, 02:24:00,VALID,917.662,VALID,0.2,VALID,99.5997,VALID,-0.0169808,VALID,19.5739,VALID,120,VALID,0.685033,
2003-02-14, 02:25:00,VALID,917.642,VALID,0.2,VALID,99.615,VALID,0,VALID,19.5637,VALID,120,VALID,0.571514,
2003-02-14, 02:26:00,VALID,917.62,VALID,0,VALID,99.6099,VALID,0,VALID,19.5508,VALID,128,VALID,0.251563,
2003-02-14, 02:27:00,VALID,917.587,VALID,0.2,VALID,99.6175,VALID,0,VALID,19.5545,VALID,179,VALID,0.29962,
2003-02-14, 02:28:00,VALID,917.557,VALID,0.2,VALID,99.6175,VALID,-0.0339617,VALID,19.551,VALID,189,VALID,0.0743189,
2003-02-14, 02:29:00,VALID,917.518,VALID,0.2,VALID,99.6251,VALID,0,VALID,19.5577,VALID,186,VALID,0.230569,
2003-02-14, 02:30:00,VALID,917.494,VALID,0.2,VALID,99.6251,VALID,-0.0169808,VALID,19.5605,VALID,156,VALID,0.486486,
2003-02-14, 02:31:00,VALID,917.467,VALID,0.2,VALID,99.6378,VALID,0,VALID,19.5647,VALID,181,VALID,0.223395,
2003-02-14, 02:32:00,VALID,917.461,VALID,0,VALID,99.634,VALID,-0.0679233,VALID,19.5741,VALID,179,VALID,0.160156,
2003-02-14, 02:33:00,VALID,917.453,VALID,0.2,VALID,99.6328,VALID,-0.0339617,VALID,19.5808,VALID,151,VALID,0.38534,
2003-02-14, 02:34:00,VALID,917.43,VALID,0.2,VALID,99.6417,VALID,-0.0509425,VALID,19.5873,VALID,149,VALID,0.155633,
2003-02-14, 02:35:00,VALID,917.424,VALID,0,VALID,99.6328,VALID,-0.0339617,VALID,19.5771,VALID,149,VALID,0.194912,
2003-02-14, 02:36:00,VALID,917.439,VALID,0.2,VALID,99.6391,VALID,-0.0339617,VALID,19.5702,VALID,148,VALID,0.149054,
2003-02-14, 02:37:00,VALID,917.458,VALID,0.2,VALID,99.6442,VALID,-0.0339617,VALID,19.5769,VALID,115,VALID,0.497713,
2003-02-14, 02:38:00,VALID,917.5,VALID,0.2,VALID,99.6442,VALID,-0.0509425,VALID,19.5771,VALID,113,VALID,0.530297,
2003-02-14, 02:39:00,VALID,917.504,VALID,0,VALID,99.6378,VALID,0,VALID,19.558,VALID,104,VALID,0.586338,
2003-02-14, 02:40:00,VALID,917.526,VALID,0.2,VALID,99.648,VALID,-0.0339617,VALID,19.545,VALID,48,VALID,0.287418,
2003-02-14, 02:41:00,VALID,917.525,VALID,0,VALID,99.6468,VALID,-0.0339617,VALID,19.5443,VALID,30,VALID,0.231571,
2003-02-14, 02:42:00,VALID,917.536,VALID,0,VALID,99.6544,VALID,-0.0509425,VALID,19.5612,VALID,31,VALID,0.265024,
2003-02-14, 02:43:00,VALID,917.518,VALID,0.2,VALID,99.6684,VALID,-0.0169808,VALID,19.5744,VALID,32,VALID,0.360577,
2003-02-14, 02:44:00,VALID,917.525,VALID,0,VALID,99.6518,VALID,-0.0339617,VALID,19.5741,VALID,32,VALID,0.141447,
2003-02-14, 02:45:00,VALID,917.506,VALID,0.2,VALID,99.6493,VALID,-0.0509425,VALID,19.5542,VALID,32,VALID,0,
2003-02-14, 02:46:00,VALID,917.504,VALID,0,VALID,99.6582,VALID,-0.0339617,VALID,19.5545,VALID,29,VALID,0.0011489,
2003-02-14, 02:47:00,VALID,917.492,VALID,0.2,VALID,99.6595,VALID,-0.0509425,VALID,19.5808,VALID,321,VALID,0.338672,
2003-02-14, 02:48:00,VALID,917.481,VALID,0,VALID,99.6658,VALID,-0.0509425,VALID,19.5774,VALID,301,VALID,0.464021,
2003-02-14, 02:49:00,VALID,917.464,VALID,0,VALID,99.6773,VALID,-0.0509425,VALID,19.5744,VALID,328,VALID,0.253255,
2003-02-14, 02:50:00,VALID,917.426,VALID,0.2,VALID,99.6696,VALID,-0.0509425,VALID,19.5736,VALID,347,VALID,0.0276605,
2003-02-14, 02:51:00,VALID,917.375,VALID,0,VALID,99.6773,VALID,-0.0679233,VALID,19.5905,VALID,323,VALID,0.357617,
2003-02-14, 02:52:00,VALID,917.321,VALID,0.2,VALID,99.676,VALID,-0.0679233,VALID,19.5905,VALID,189,VALID,0.748633,
2003-02-14, 02:53:00,VALID,917.302,VALID,0,VALID,99.6773,VALID,-0.0509425,VALID,19.591,VALID,217,VALID,0.357171,
2003-02-14, 02:54:00,VALID,917.31,VALID,0.2,VALID,99.676,VALID,-0.0679233,VALID,19.5674,VALID,225,VALID,0.211328,
2003-02-14, 02:55:00,VALID,917.339,VALID,0,VALID,99.6798,VALID,-0.0339617,VALID,19.59,VALID,283,VALID,0.180664,
2003-02-14, 02:56:00,VALID,917.354,VALID,0.2,VALID,99.6785,VALID,-0.0169808,VALID,19.6062,VALID,1,VALID,0.54413,
2003-02-14, 02:57:00,VALID,917.339,VALID,0,VALID,99.6773,VALID,-0.0169808,VALID,19.6127,VALID,16,VALID,0.625633,
2003-02-14, 02:58:00,VALID,917.302,VALID,0.2,VALID,99.6785,VALID,-0.0509425,VALID,19.6291,VALID,48,VALID,0.463086,
2003-02-14, 02:59:00,VALID,917.24,VALID,0,VALID,99.6836,VALID,-0.0509425,VALID,19.5995,VALID,79,VALID,0.436384,
2003-02-14, 03:00:00,VALID,917.183,VALID,0,VALID,99.676,VALID,-0.0169808,VALID,19.5803,VALID,125,VALID,0.440625,
2003-02-14, 03:01:00,VALID,917.105,VALID,0,VALID,99.6684,VALID,-0.0509425,VALID,19.5744,VALID,145,VALID,0.621394,
2003-02-14, 03:02:00,VALID,917.056,VALID,0,VALID,99.6735,VALID,-0.0169808,VALID,19.5547,VALID,153,VALID,0.737048,
2003-02-14, 03:03:00,VALID,917.018,VALID,0,VALID,99.6747,VALID,-0.0339617,VALID,19.5326,VALID,159,VALID,0.516653,
2003-02-14, 03:04:00,VALID,916.989,VALID,0.2,VALID,99.6658,VALID,0,VALID,19.5222,VALID,164,VALID,0.334736,
2003-02-14, 03:05:00,VALID,916.971,VALID,0,VALID,99.6773,VALID,-0.0339617,VALID,19.4963,VALID,179,VALID,0.473633,
2003-02-14, 03:06:00,VALID,916.977,VALID,0,VALID,99.6798,VALID,-0.0679233,VALID,19.4799,VALID,179,VALID,0.311444,
2003-02-14, 03:07:00,VALID,917.003,VALID,0,VALID,99.6785,VALID,-0.0339617,VALID,19.4871,VALID,113,VALID,0.218349,
2003-02-14, 03:08:00,VALID,917.037,VALID,0.2,VALID,99.6836,VALID,-0.0169808,VALID,19.4873,VALID,74,VALID,0.547676,
2003-02-14, 03:09:00,VALID,917.063,VALID,0,VALID,99.6862,VALID,-0.0509425,VALID,19.4536,VALID,30,VALID,0.983108,
2003-02-14, 03:10:00,VALID,917.084,VALID,0,VALID,99.6874,VALID,0,VALID,19.4732,VALID,28,VALID,1.08763,
2003-02-14, 03:11:00,VALID,917.073,VALID,0,VALID,99.6989,VALID,-0.0169808,VALID,19.4836,VALID,33,VALID,1.03359,
2003-02-14, 03:12:00,VALID,917.07,VALID,0,VALID,99.69,VALID,-0.0339617,VALID,19.4603,VALID,51,VALID,0.824449,
2003-02-14, 03:13:00,VALID,917.037,VALID,0,VALID,99.6989,VALID,-0.0509425,VALID,19.4603,VALID,65,VALID,0.923931,
2003-02-14, 03:14:00,VALID,917.033,VALID,0.2,VALID,99.6938,VALID,-0.0169808,VALID,19.4478,VALID,84,VALID,1.0621,
2003-02-14, 03:15:00,VALID,917.015,VALID,0,VALID,99.6925,VALID,-0.0169808,VALID,19.4349,VALID,87,VALID,1.14782,
2003-02-14, 03:16:00,VALID,917.002,VALID,0,VALID,99.6925,VALID,-0.0339617,VALID,19.422,VALID,90,VALID,0.870477,
2003-02-14, 03:17:00,VALID,916.968,VALID,0,VALID,99.6938,VALID,-0.0339617,VALID,19.3996,VALID,99,VALID,0.754954,
2003-02-14, 03:18:00,VALID,916.931,VALID,0,VALID,99.6976,VALID,-0.0509425,VALID,19.3832,VALID,99,VALID,0.913862,
2003-02-14, 03:19:00,VALID,916.879,VALID,0.2,VALID,99.7103,VALID,-0.0169808,VALID,19.3772,VALID,111,VALID,0.696546,
2003-02-14, 03:20:00,VALID,916.852,VALID,0.2,VALID,99.7014,VALID,-0.0339617,VALID,19.3772,VALID,122,VALID,0.711739,
2003-02-14, 03:21:00,VALID,916.837,VALID,0,VALID,99.7065,VALID,-0.0339617,VALID,19.3772,VALID,116,VALID,0.848758,
2003-02-14, 03:22:00,VALID,916.84,VALID,0.2,VALID,99.7078,VALID,-0.0169808,VALID,19.3707,VALID,81,VALID,0.56871,
2003-02-14, 03:23:00,VALID,916.872,VALID,0.2,VALID,99.7078,VALID,-0.0339617,VALID,19.3613,VALID,102,VALID,0.47903,
2003-02-14, 03:24:00,VALID,916.883,VALID,0.2,VALID,99.704,VALID,-0.0849042,VALID,19.3645,VALID,101,VALID,0.0483141,
2003-02-14, 03:25:00,VALID,916.888,VALID,0.2,VALID,99.718,VALID,-0.0679233,VALID,19.3705,VALID,33,VALID,0.232537,
2003-02-14, 03:26:00,VALID,916.906,VALID,0,VALID,99.7154,VALID,-0.0509425,VALID,19.3842,VALID,297,VALID,0.733984,
2003-02-14, 03:27:00,VALID,916.926,VALID,0.2,VALID,99.7129,VALID,-0.101885,VALID,19.4001,VALID,289,VALID,0.635896,
2003-02-14, 03:28:00,VALID,916.961,VALID,0,VALID,99.7116,VALID,-0.0339617,VALID,19.3993,VALID,273,VALID,0.196181,
2003-02-14, 03:29:00,VALID,916.985,VALID,0,VALID,99.7078,VALID,-0.101885,VALID,19.3901,VALID,244,VALID,0.105785,
2003-02-14, 03:30:00,VALID,917.003,VALID,0,VALID,99.7218,VALID,-0.0679233,VALID,19.4036,VALID,243,VALID,0,
2003-02-14, 03:31:00,VALID,917.003,VALID,0,VALID,99.7294,VALID,-0.0849042,VALID,19.41,VALID,243,VALID,0,
2003-02-14, 03:32:00,VALID,916.999,VALID,0,VALID,99.7319,VALID,-0.0849042,VALID,19.4391,VALID,243,VALID,0,
2003-02-14, 03:33:00,VALID,916.982,VALID,0,VALID,99.723,VALID,-0.0339617,VALID,19.462,VALID,243,VALID,0.0589844,